Powrót do katalogu

NAPA-2 MASS SIMULATOR

AktywnyNaukaPO
NORAD 47953·PAYLOAD·🇷🇺 Russia
Ta nazwa satelity nie została jeszcze potwierdzona przez oficjalne źródła.

Wystrzelony Mar 22, 2021 z Baikonur Cosmodrome

Loading…

Następne Przeloty (najbliższe 24 godziny)

TLE

Starzejące sięSource: Space-Track

Epoka: Sep 9, 2026, 22:43 UTC

1 47953U 21022X   26252.94715253  .06847055  25781-5  66902-3 0  9997
2 47953  97.3670 177.2436 0008034 203.0342 157.0597 16.38318135303965

Śledź NAPA-2 MASS SIMULATOR w czasie rzeczywistym z AllMySat

Download on the App Store